Regional Weather Roundup
Issued by NWS Glasgow, MT

Home | Current Version | Previous Version | Text Only | Print | Product List | Glossary On
Versions: 1 2 3 4 5 6 7 8 9 10 11 12 13 14 15 16 17 18 19 20 21 22 23 24 25 26 27 28 29 30 31 32 33 34 35 36 37 38 39 40 41 42 43 44 45 46 47 48 49 50
000
ASUS45 KGGW 162015
RWRGGW
HOURLY WEATHER ROUNDUP FOR NORTHEAST MONTANA
NATIONAL WEATHER SERVICE GLASGOW MONTANA
200 PM MDT TUE SEP 16 2014

NOTE: "FAIR" INDICATES FEW OR NO CLOUDS BELOW 12,000 FEET WITH NO
SIGNIFICANT WEATHER AND/OR OBSTRUCTIONS TO VISISBILITY.

NORTHEAST MONTANA


CITY           SKY/WX    TMP DP  RH WIND       PRES   REMARKS
GLASGOW        SUNNY     73  42  32 S6        29.94F
PLENTYWOOD       N/A     74  35  24 W5          N/A
WOLF POINT     MOSUNNY   76  37  24 VRB7      29.94F
JORDAN           N/A     76  46  34 VRB3      29.94F
WINNETT          N/A     75  52  44 NE5         N/A
SIDNEY         SUNNY     73  39  29 E6        29.97F
GLENDIVE       MOSUNNY   72  43  35 CALM      29.97F
MALTA            N/A     80  47  31 SE3         N/A
SCOBEY           N/A     73  37  27 CALM      29.95F

FORT PECK REPORTS


CITY           SKY/WX    TMP DP  RH WIND       PRES   REMARKS
FORT PECK        N/A     73  48  41 S3          N/A
THE PINES        N/A     77  39  25 S3          N/A

SOUTHEAST MONTANA


CITY           SKY/WX    TMP DP  RH WIND       PRES   REMARKS
BILLINGS       PTSUNNY   81  35  19 SW12      29.98F
MILES CITY     SUNNY     76  47  35 VRB5      29.95F
BAKER          MOSUNNY   77  46  33 CALM      29.97F
LIVINGSTON     MOSUNNY   80  38  22 N8        30.05F

CENTRAL MONTANA


CITY           SKY/WX    TMP DP  RH WIND       PRES   REMARKS
HAVRE          SUNNY     73  46  38 VRB3      29.93F
LEWISTOWN      MOSUNNY   78  32  18 VRB5      30.01S
GREAT FALLS    PTSUNNY   79  39  23 SW10      29.96F
CUT BANK       MOSUNNY   80  36  20 S7        29.95F
HELENA         CLOUDY    67  39  35 W5        30.05F
BUTTE          CLOUDY    69  38  32 CALM      30.14F
BOZEMAN        MOSUNNY   77  37  23 CALM      30.07F

WESTERN MONTANA


CITY           SKY/WX    TMP DP  RH WIND       PRES   REMARKS
MISSOULA       CLOUDY    72  36  26 VRB3      29.99F
KALISPELL      NOT AVBL

NORTH DAKOTA


CITY           SKY/WX    TMP DP  RH WIND       PRES   REMARKS
WILLISTON      SUNNY     72  33  24 E5        29.96F
DICKINSON      SUNNY     73  46  38 NE6       29.95F
MINOT          SUNNY     71  43  36 E7        29.94F
BISMARCK       SUNNY     73  47  39 E5        29.95F

SOUTHERN SASKATCHEWAN


CITY           SKY/WX    TMP DP  RH WIND       PRES   REMARKS
REGINA         MOSUNNY   73  45  35 VRB7      29.91F
MOOSE JAW      MOSUNNY   73  43  33 SW5       29.92F
ESTEVAN        MOSUNNY   72  43  35 SW8       29.95F
SWIFT CURRENT  SUNNY     75  41  29 SW12      29.90F



USA.gov is the U.S. government's official web portal to all federal, state and local government web resources and services.